"Pseudo-MPEC" for P116a0L

Created 2020 Sep 18 3:07:36 UT using Find_Orb

Click here for an explanation of pseudo-MPECs

 
 Astrometry: 
     P116a0L  C2020 09 15e[r*7S6/Se06m@#1dalEN0wlslaKw:jX3Npfe%sPjcw.]TsH@GjPF51
     P116a0L  C2020 09 15D6#6QN4Astrometryl?redacted;lYGy2vL=f5ntrIG@?ghc=fAWF51
     P116a0L  C2020 09 15QoEwhk06./*5spJhDwkkq0Y9sPsq7%A\cMgy5vV?fOi6qg3clickF51
     P116a0L KC2020 09 16b3+rFDlv$?n;x5Q!R%hR:b4*khereWucybK2GDXljTJc@bkq=Dv_H21
     P116a0L  C2020 09 16.18152 23 19 26.01 +06 43 50.9    ~9G4q 21.8 GVNEOCPV06
     P116a0L  C2020 09 16.18548 23 19 25.58 +06 43 51.7    ~9G4q 21.8 GVNEOCPV06
     P116a0L  C2020 09 16.18944 23 19 25.17 +06 43 53.3    ~9G4q 21.8 GVNEOCPV06
     P116a0L KC2020 09 16PkW8Y)j7liyrUGp3m:Bq#D7?jc\4_ud*SV=o9b`,Q_Xa`Nt-hpYEH21
     P116a0L  C2020 09 16.19341 23 19 24.71 +06 43 54.1    ~9G4q 22.0 GVNEOCPV06
     P116a0L KC2020 09 16ope_Y!ssw7W*mOy,7_lBx$)9RXtNYtC*9(=:UjklHO9Q(hgFd@Kn711
     P116a0L KC2020 09 163WL3RGxQ?H369%(;Tvl]v4$BxxGle%rS1s7K+0QSCgFHJaWF-nvu711
     P116a0L KC2020 09 16Lrt%@@jEmC0@w!k(1v6Td6WhR4h_\d5.\c3]X!P!epyfa[w^KRbc711
     P116a0L  C2020 09 16jnQX-3vBuX+c5iAj?vV6OBQet5j7Ri[@m.-iP(6E7Yf[R=7hl4t1F51
     P116a0L  C2020 09 16./h!.W6/Q*=^MG@O7f@p,I#9kJ'e[5O7#*F4@U?$LWRMx[?5$$8\F51
     P116a0L  C2020 09 16q^,yIAhRYF\%4W4T[:1gAcI`[KP`)hBTL(-PIP\\vs;0P)ew*-?mF51
     P116a0L  C2020 09 17VYO[ciRerXmZbp0E-,rHpH,ig)stHf*\oeE^]QI0dpjLAKN`CP0EF51
     P116a0L  C2020 09 17\ygfLahmFJbeJGI!JY?u#F#qj=ot'nW[[C-weC6c.:d1;hj5cG[%F51
     P116a0L  C2020 09 17JRIA!DIJ!*_xk\clYS/BGMS=;xR%E3*J?.EuRHE-,*_xADT0SPWZF51
     P116a0L  C2020 09 17*Nu\for[9_+YG+TSSS:`7y^XU\g?i=QI!%D],y?explanationy8F51
     P116a0L  C2020 09 17$2_/@8csR#1+aC:w0Zf(e5)j3AP2`*JcN]!kV-nA8/?-,)gr1,a;F51
     P116a0L  C2020 09 17vt\'av11nMuBdPgA^5vD[]*eJVv0=k-l'hSWSL9Hkj6f(%\XJ.)@F51

Station data:
(711) McDonald Observatory, Fort Davis  (N30.671481 W104.021500)  US/Texas.
   0.76-m f/3.0 reflector.
(F51) Pan-STARRS 1, Haleakala  (N20.707235 W156.255910)  US/Hawaii.
   Observers N. Primak, A. Schultz, S. Watters, J. Thiel, T. Goggia. Measurer
   PS1 Science Consortium. 1.8-m Ritchey-Chrétien + CCD.
(H21) Astronomical Research Observatory, Westfield  (N39.483057 W87.968270)
   US/Illinois. 0.76-m f/3.0 astrograph + CCD.
(V06) Catalina Sky Survey-Kuiper  (N32.416847 W110.732550)  US/Arizona.
   Observers T. A. Pruyne, B. M. Africano, E. J. Christensen, G. A. Farneth,
   D. C. Fuls, A. R. Gibbs, A. D. Grauer, H. Gröller, J. A. Johnson, R. A.
   Kowalski, S. M. Larson, G. J. Leonard, D. Rankin, R. L. Seaman, F. C.
   Shelly. 1.55-m reflector + CCD.

Orbital elements:  P116a0L
   Perihelion 2021 Sep 21.077131 +/- 24.5 TT =  1:51:04 (JD 2459478.577131)
Epoch 2020 Sep 17.0 TT = JDT 2459109.5   Earth MOID: 0.6124   Ma: 0.0609
M 193.28515382 +/- 11               (J2000 ecliptic)          AutoNEOCP
n   0.45170733 +/- 0.008            Peri.  184.50125 +/- 10
a   1.68227873 +/- 0.0199           Node   337.74543 +/- 0.52
e   0.0470854 +/- 0.00832           Incl.   15.86635 +/- 0.8
P   2.18/796.96d           H 21.3   G  0.15   U  9.5  
q 1.60306785 +/- 0.00741    Q 1.76148962 +/- 0.0338
From 21 observations 2020 Sept. 15-17; mean residual 0".36
Residuals in arcseconds: 
200915 F51  .10-  .17+    200916 H21  .36+  .07-    200916 F51  .77+  .47-    
200915 F51  .08-  .06+    200916 V06  .08-  .15-    200917 F51  .12-  .12+    
200915 F51  .35+  .17+    200916 711  1.0-  .12+    200917 F51  .08-  .04-    
200916 H21  .20+  .19+    200916 711  .53-  .22-    200917 F51  .20+  .16+    
200916 V06  .03+  .12+    200916 711  .74-  .36+    200917 F51  .01+  .12+    
200916 V06  .03+  .24-    200916 F51  .59+  .57-    200917 F51  .03-  .07+    
200916 V06  .34+  .21+    200916 F51  .81+  .61-    200917 F51  .02+  .11+    

Ephemerides (geocentric):
Date (UTC) HH   RA              Dec         delta   r     elong  mag " sig PA
---- -- -- --  -------------   -----------  ------ ------ -----  --- ---- ---
2020 09 18 03  23 16 01.626   +06 52 51.16  .76258 1.7594 169.0 22.4 .744 104
2020 09 18 04  23 15 57.280   +06 53 02.13  .76262 1.7594 169.0 22.4 .783 105
2020 09 18 05  23 15 52.935   +06 53 13.08  .76266 1.7594 168.9 22.4 .824 106
2020 09 18 06  23 15 48.591   +06 53 24.02  .76270 1.7594 168.9 22.4 .865 107
2020 09 18 07  23 15 44.249   +06 53 34.93  .76274 1.7594 168.9 22.4 .908 108
2020 09 18 08  23 15 39.908   +06 53 45.82  .76278 1.7594 168.9 22.4 .951 108
2020 09 18 09  23 15 35.568   +06 53 56.69  .76283 1.7594 168.8 22.4 1.00 109
2020 09 18 10  23 15 31.230   +06 54 07.54  .76287 1.7594 168.8 22.4 1.04 110
2020 09 18 11  23 15 26.893   +06 54 18.37  .76291 1.7594 168.8 22.4 1.09 110
2020 09 18 12  23 15 22.558   +06 54 29.18  .76296 1.7594 168.8 22.4 1.14 111
2020 09 18 13  23 15 18.224   +06 54 39.97  .76300 1.7593 168.7 22.4 1.19 111
2020 09 18 14  23 15 13.892   +06 54 50.73  .76304 1.7593 168.7 22.4 1.24 112
2020 09 18 15  23 15 09.560   +06 55 01.48  .76309 1.7593 168.7 22.4 1.29 112
2020 09 18 16  23 15 05.231   +06 55 12.21  .76313 1.7593 168.7 22.4 1.34 113
2020 09 18 17  23 15 00.903   +06 55 22.92  .76318 1.7593 168.6 22.4 1.39 113
2020 09 18 18  23 14 56.576   +06 55 33.60  .76323 1.7593 168.6 22.4 1.45 114
2020 09 18 19  23 14 52.251   +06 55 44.27  .76327 1.7593 168.6 22.4 1.50 114
2020 09 18 20  23 14 47.927   +06 55 54.92  .76332 1.7593 168.5 22.4 1.56 114
2020 09 18 21  23 14 43.605   +06 56 05.54  .76337 1.7593 168.5 22.4 1.62 115
2020 09 18 22  23 14 39.284   +06 56 16.15  .76342 1.7593 168.5 22.4 1.68 115
2020 09 18 23  23 14 34.965   +06 56 26.73  .76346 1.7593 168.5 22.4 1.74 115
2020 09 19 00  23 14 30.647   +06 56 37.30  .76351 1.7593 168.4 22.4 1.80 116
2020 09 19 01  23 14 26.331   +06 56 47.84  .76356 1.7593 168.4 22.4 1.86 116
2020 09 19 02  23 14 22.017   +06 56 58.37  .76361 1.7593 168.4 22.4 1.92 116
2020 09 19 03  23 14 17.704   +06 57 08.88  .76366 1.7593 168.4 22.4 1.98 116
2020 09 19 04  23 14 13.393   +06 57 19.36  .76371 1.7593 168.3 22.4 2.05 116
2020 09 19 05  23 14 09.083   +06 57 29.83  .76376 1.7593 168.3 22.4 2.12 117
2020 09 19 06  23 14 04.775   +06 57 40.27  .76381 1.7592 168.3 22.4 2.18 117
2020 09 19 07  23 14 00.469   +06 57 50.70  .76386 1.7592 168.2 22.4 2.25 117
2020 09 19 08  23 13 56.164   +06 58 01.10  .76392 1.7592 168.2 22.4 2.32 117
2020 09 19 09  23 13 51.861   +06 58 11.49  .76397 1.7592 168.2 22.4 2.39 117
2020 09 19 10  23 13 47.560   +06 58 21.85  .76402 1.7592 168.1 22.4 2.46 118
2020 09 19 11  23 13 43.260   +06 58 32.20  .76407 1.7592 168.1 22.5 2.54 118
2020 09 19 12  23 13 38.962   +06 58 42.52  .76413 1.7592 168.1 22.5 2.61 118
2020 09 19 13  23 13 34.666   +06 58 52.83  .76418 1.7592 168.1 22.5 2.68 118
2020 09 19 14  23 13 30.371   +06 59 03.11  .76424 1.7592 168.0 22.5 2.76 118
2020 09 19 15  23 13 26.078   +06 59 13.38  .76429 1.7592 168.0 22.5 2.84 118
2020 09 19 16  23 13 21.787   +06 59 23.63  .76435 1.7592 168.0 22.5 2.91 118
2020 09 19 17  23 13 17.498   +06 59 33.85  .76440 1.7592 167.9 22.5 2.99 118
2020 09 19 18  23 13 13.210   +06 59 44.06  .76446 1.7592 167.9 22.5 3.07 119
2020 09 19 19  23 13 08.924   +06 59 54.25  .76451 1.7592 167.9 22.5 3.15 119
2020 09 19 20  23 13 04.640   +07 00 04.41  .76457 1.7592 167.8 22.5 3.24 119
2020 09 19 21  23 13 00.358   +07 00 14.56  .76463 1.7592 167.8 22.5 3.32 119
2020 09 19 22  23 12 56.078   +07 00 24.69  .76469 1.7592 167.8 22.5 3.41 119
2020 09 19 23  23 12 51.799   +07 00 34.80  .76474 1.7591 167.7 22.5 3.49 119
2020 09 20 00  23 12 47.522   +07 00 44.89  .76480 1.7591 167.7 22.5 3.58 119
2020 09 20 01  23 12 43.248   +07 00 54.96  .76486 1.7591 167.7 22.5 3.67 119
2020 09 20 02  23 12 38.975   +07 01 05.01  .76492 1.7591 167.6 22.5 3.76 119